Погода в Тиганове

Россия / Брянская область     53°12′01″N   34°12′58″E
темп.,
°C
ветер,
м/с
пор.,
м/с
влажн.,
%
обл.,
%
осадки,
мм/ч
давл.,
гПа
погр.,
м
4 июля, пн
пн400:00+18сз238573 0.0 101731
03:00+17сз228594 0.0 101725
06:00+18сз2283100 0.0 101739
09:00+24сз236758 0.0 1017353
12:00+27з335253 0.0 10161173
15:00+25с2362100 0.3 1015367
18:00+21ююз3680100 0.8 1015125
21:00+19ююз338497 2.3 101637
5 июля, вт
вт500:00+17юз228781 0.1 101619
03:00+16з119159 0.1 101611
06:00+18ююз22895 0.0 101636
09:00+23ююз2271100 0.0 1016381
12:00+27юз2255100 0.7 10161006
15:00+26з3454100 1.0 1016675
18:00+27з345814 0.0 10151106
21:00+21ююз228087 0.0 101523
6 июля, ср
ср600:00+19юз22875 0.1 101611
03:00+18з2288100 0.8 101620
06:00+19юз118995 1.2 101628
09:00+23юз117283 1.2 1015383
12:00+27юз235192 0.0 10141313
15:00+27юз245871 0.0 1013488
18:00+29ююз3654100 0.0 10121119
21:00+21ююз41086100 1.3 1012242
7 июля, чт
чт700:00+18ююв349526 1.3 101365
03:00+16юз369958 1.7 1014174
06:00+18ссз349499 0.8 1014357
09:00+18с339299 2.8 1014453
12:00+20ссв228399 1.5 1015583
15:00+24ссв117025 1.6 1014816
18:00+24ссз227231 0.6 1014616
21:00+19св1194100 4.7 101315
8 июля, пт
пт800:00+18ююв1196100 3.7 101411
03:00+17ююв359670 4.3 1014110
06:00+17ююв26957 0.1 1014147
09:00+22ю357345 0.1 1014417
12:00+23сз127099 0.1 1016941
15:00+18ссз3593100 1.7 1016147
18:00+21сз1275100 0.0 1016578
21:00+18сз228741 0.0 101611